{"data":{"norad_id":59309,"intl_designator":"2024-056P","name":"STARLINK-31455","alt_names":[],"object_type":"PAYLOAD","status":"ACTIVE","operator":null,"country":"US","launch_date":"2024-03-24","launch_site_code":"AFETR","launch_vehicle":null,"mission":null,"orbit_class":"UNKNOWN","rcs_meters":null,"size_class":null,"mass_kg":null,"dimensions":null,"purposes":["comms"],"wikipedia_slug":null,"has_3d_model":false,"image_url":null,"decayed_at":null,"tle_current":{"epoch":"2026-05-25T01:51:00.193248Z","epoch_age_seconds":78774,"freshness":"FRESH","line1":"1 59309U 24056P   26145.07708557 -.00000123  00000+0  50604-5 0  9996","line2":"2 59309  43.0027 156.1287 0001123 274.9784  85.0940 15.27575089122877","mean_motion":15.27575089,"eccentricity":0.0001123,"inclination_deg":43.0027,"raan_deg":156.1287,"arg_perigee_deg":274.9784,"mean_anomaly_deg":85.094,"bstar":5.0604e-6,"rev_number":12287,"period_min":94.267051771751,"perigee_km":482.29328852978,"apogee_km":483.83431422977,"semimajor_km":6861.2008013798,"source":"CELESTRAK","updated_at":"2026-05-25T13:38:18.900420Z"}}}